Simultaneous Nadir Overpasses (SNOs) Predictions

Prediction of SNOs between AQUA and NOAA-19 Satellite Orbit:

Table of predicted SNOs for the next 14.0 days since TLE Epoch: 8/3/2024
Index Date (AQUA) Time (AQUA) Lat,Lon (AQUA) SZA (AQUA ) Date (NOAA-19) Time (NOAA-19) Lat,Lon (NOAA-19) SZA (NOAA-19 ) Distance(km) Time Diff (sec)
1 08/03/2024 08:58:10 -75.67,-135.82 121.72 08/03/2024 08:57:20 -75.67,-135.80 121.72 0.73 50
2 08/03/2024 09:47:33 75.71, 31.71 58.34 08/03/2024 09:48:21 75.74, 31.69 58.37 3.33 48
3 08/05/2024 12:47:48 75.66, -13.16 58.86 08/05/2024 12:47:15 75.69, -13.17 58.88 2.44 33
4 08/05/2024 13:37:11 -75.76, 154.21 121.04 08/05/2024 13:38:09 -75.75, 154.33 121.05 3.33 58
5 08/07/2024 16:37:24 -75.66, 109.47 120.55 08/07/2024 16:37:04 -75.66, 109.33 120.55 3.96 20
6 08/07/2024 17:26:50 75.86, -83.46 59.67 08/07/2024 17:28:01 75.88, -82.66 59.68 21.66 71
7 08/09/2024 20:27:01 75.72,-128.06 60.14 08/09/2024 20:26:57 75.71,-127.92 60.13 4.06 4
8 08/11/2024 23:27:07 75.39,-172.10 60.43 08/11/2024 23:25:58 75.30,-173.94 60.36 52.77 69
9 08/12/2024 00:16:34 -75.68, -5.29 119.27 08/12/2024 00:16:46 -75.70, -5.34 119.24 2.83 12
10 08/14/2024 03:16:45 -75.65, -50.20 118.65 08/14/2024 03:15:40 -75.63, -50.26 118.67 3.05 65
11 08/14/2024 04:06:08 75.71, 117.29 61.42 08/14/2024 04:06:39 75.69, 117.20 61.41 3.11 31
12 08/16/2024 07:06:18 75.68, 72.36 62.06 08/16/2024 07:05:31 75.67, 72.47 62.05 3.22 47



Historial Predications of SNOs between AQUA and NOAA-19
